Location: Izdebnik
(49.8699°N, 19.7619°E)
Time: 05:28:00
(UTC+01:00)

ISS - Pass Details

Date: 30 January 2019
Orbit: 403 x 411 km, 51.6° (Epoch: 23 February)

Event Time Altitude Azimuth Distance (km) Brightness Sun altitude
Rises 17:23:32 0° 255° (WSW) 2,329 2.5 -8.6°
Reaches altitude 10° 17:25:37 10° 256° (WSW) 1,472 0.7 -8.9°
Maximum altitude 17:28:55 83° 345° (NNW) 418 -3.8 -9.4°
Enters shadow 17:31:37 15° 73° (ENE) 1,227 -2.1 -9.8°
